sat.trackr.live / text

‹ back to catalog

LINGQIAO VIDEO B

NORAD 40960 · 2015-057C

PAYLOAD ACTIVE UNKNOWN

§ Identity

Operator
Country
PRC
Launch date
2015-10-07
Launch site
JSC
Launch vehicle
Mass (kg)
RCS (m²)
0.40

External: N2YO · Heavens-Above · Gunter

§ Orbital elements

Epoch: 2026-09-20T05:09:45.123840Z

Period
97.45 min
Inclination
97.6680°
Eccentricity
0.0016102
Mean motion
14.77606819 rev/d
Perigee alt
625.6 km
Apogee alt
648.2 km
Semi-major
7,015.0 km
B*
9.7317e-5
RAAN
254.5129°
Arg perigee
325.5271°
Mean anomaly
34.4894°
Rev number
58,948

§ Raw data

LINGQIAO VIDEO B1 40960U 15057C   26263.21510560  .00000648  00000+0  97317-4 0  99942 40960  97.6680 254.5129 0016102 325.5271  34.4894 14.77606819589485

JSON: /api/v1/satellites/40960 · /tle

For live sub-satellite position, see the globe view (requires WebGL).

§ Visibility from observer

Set your observer location to see the next 7 days of passes ≥ 10°. The values pass through the URL so the page stays shareable.

No JS? Fill the form by hand. The geolocation button needs JavaScript.

§ Radio — SatNOGS DB

ModeDescriptionDownlinkUplink
BPSK Telemetry 2.274 GHz

1 transmitter · refreshed weekly from db.satnogs.org